Weather History for Rolla, ND

Change the Weather History Date:

Wednesday, December 18, 2013

  Actual Average (KRUG) Record (KRUG)
Temperature  
Mean Temperature 10 °F -  
Max Temperature 23 °F 21 °F 45 °F (1979)
Min Temperature -4 °F 0 °F -30 °F (1983)
Degree Days  
Heating Degree Days 56    
Moisture  
Dew Point 10 °F    
Average Humidity 88    
Maximum Humidity 100    
Minimum Humidity 78    
Precipitation  
Precipitation 0.10 in - - ()
Sea Level Pressure  
Sea Level Pressure 29.66 in    
Wind  
Wind Speed 12 mph (NW)    
Max Wind Speed 26 mph    
Max Gust Speed 34 mph    
Visibility 9 miles    
Events Rain , Snow    
Averages and records for this station are not official NWS values.
T = Trace of Precipitation, MM = Missing Value Source: NWS Daily Summary

Daily Weather History Graph

Daily Weather History Graph

Search for Another Location

Airport:

Trip Planner

Search our weather history database for the weather conditions in past years. The results will help you decide how hot, cold, wet, or windy it might be!

Date:

Astronomy

Dec. 18, 2013 Rise Set
Actual Time 8:27 AM CST 4:42 PM CST
Civil Twilight 7:50 AM CST 5:20 PM CST
Nautical Twilight 7:09 AM CST 6:00 PM CST
Astronomical Twilight 6:31 AM CST 6:39 PM CST
Moon 6:23 PM CST (12/18) 9:01 AM CST (12/18)
Length of Visible Light 9h 29m
Length of Day
8h 15m
Full, 98% of the Moon is Illuminated
Dec 18
Full
Dec 25
Last Quarter
Jan 1
New
Jan 7
First Quarter
Jan 15
Full

Hourly Weather History & Observations

Time (CST) Temp. Windchill Dew Point Humidity Pressure Visibility Wind Dir Wind Speed Gust Speed Precip Events Conditions
12:15 AM 17.6 °F 4.3 °F 15.8 °F 93% 29.65 in 10.0 mi South 12.7 mph - N/A   Mostly Cloudy
12:35 AM 17.6 °F 2.7 °F 14.0 °F 86% 29.62 in 10.0 mi South 16.1 mph - N/A   Scattered Clouds
12:55 AM 17.6 °F 3.2 °F 14.0 °F 86% 29.60 in 10.0 mi South 15.0 mph - N/A   Partly Cloudy
1:15 AM 17.6 °F 3.7 °F 14.0 °F 86% 29.59 in 10.0 mi South 13.8 mph - N/A   Clear
1:35 AM 17.6 °F 3.7 °F 14.0 °F 86% 29.57 in 10.0 mi South 13.8 mph - N/A   Partly Cloudy
1:55 AM 17.6 °F 5.0 °F 14.0 °F 86% 29.57 in 10.0 mi SSW 11.5 mph 16.1 mph N/A   Scattered Clouds
2:15 AM 15.8 °F 6.1 °F 12.2 °F 86% 29.58 in 10.0 mi SW 6.9 mph - N/A   Partly Cloudy
2:35 AM 14.0 °F 1.2 °F 10.4 °F 86% 29.57 in 10.0 mi SSW 10.4 mph - N/A   Clear
2:55 AM 14.0 °F 1.2 °F 10.4 °F 86% 29.54 in 10.0 mi South 10.4 mph - N/A   Clear
3:15 AM 14.0 °F 2.0 °F 10.4 °F 86% 29.53 in 10.0 mi South 9.2 mph - N/A   Clear
3:35 AM 14.0 °F 2.0 °F 10.4 °F 86% 29.54 in 10.0 mi SW 9.2 mph - N/A   Clear
3:55 AM 12.2 °F -3.7 °F 10.4 °F 92% 29.51 in 10.0 mi SSW 15.0 mph - N/A   Clear
4:15 AM 10.4 °F -2.4 °F 8.6 °F 92% 29.51 in 10.0 mi SW 9.2 mph - N/A   Clear
4:35 AM 10.4 °F -1.5 °F 8.6 °F 92% 29.52 in 10.0 mi SW 8.1 mph - N/A   Clear
4:55 AM 12.2 °F 0.7 °F 8.6 °F 85% 29.51 in 10.0 mi SSW 8.1 mph - N/A   Clear
5:15 AM 12.2 °F 4.3 °F 10.4 °F 92% 29.50 in 10.0 mi SW 4.6 mph - N/A   Clear
5:35 AM 12.2 °F 0.7 °F 10.4 °F 92% 29.49 in 10.0 mi SW 8.1 mph - N/A   Clear
5:55 AM 12.2 °F 0.7 °F 10.4 °F 92% 29.48 in 10.0 mi SSW 8.1 mph - N/A   Scattered Clouds
6:15 AM 14.0 °F 3.9 °F 10.4 °F 86% 29.48 in 10.0 mi SSW 6.9 mph - N/A   Mostly Cloudy
6:35 AM 15.8 °F - 14.0 °F 93% 29.49 in 10.0 mi Calm Calm - N/A   Mostly Cloudy
6:55 AM 15.8 °F 7.2 °F 14.0 °F 93% 29.48 in 10.0 mi SSW 5.8 mph - N/A   Mostly Cloudy
7:15 AM 17.6 °F 9.3 °F 15.8 °F 93% 29.48 in 10.0 mi WSW 5.8 mph - N/A   Overcast
7:35 AM 17.6 °F 8.2 °F 15.8 °F 93% 29.48 in 10.0 mi SW 6.9 mph - N/A   Mostly Cloudy
7:55 AM 17.6 °F 9.3 °F 15.8 °F 93% 29.48 in 10.0 mi SSW 5.8 mph - N/A   Overcast
8:15 AM 17.6 °F 5.7 °F 15.8 °F 93% 29.49 in 10.0 mi SW 10.4 mph - N/A   Overcast
8:35 AM 17.6 °F 7.3 °F 15.8 °F 93% 29.49 in 10.0 mi West 8.1 mph - N/A   Overcast
8:55 AM 17.6 °F - 15.8 °F 93% 29.49 in 10.0 mi Calm Calm - N/A   Overcast
9:15 AM 17.6 °F 10.7 °F 15.8 °F 93% 29.51 in 10.0 mi West 4.6 mph - N/A   Overcast
9:35 AM 17.6 °F - 15.8 °F 93% 29.52 in 10.0 mi Calm Calm - N/A   Mostly Cloudy
9:55 AM 17.6 °F 12.3 °F 15.8 °F 93% 29.53 in 10.0 mi WNW 3.5 mph - N/A   Scattered Clouds
10:15 AM 17.6 °F - 15.8 °F 93% 29.54 in 10.0 mi Calm Calm - N/A   Partly Cloudy
10:35 AM 17.6 °F - 15.8 °F 93% 29.55 in 10.0 mi Calm Calm - N/A   Scattered Clouds
10:55 AM 23.0 °F 17.0 °F 17.6 °F 80% 29.55 in 10.0 mi NNW 4.6 mph - N/A   Scattered Clouds
11:15 AM 23.0 °F 11.7 °F 19.4 °F 86% 29.55 in 10.0 mi North 11.5 mph - N/A   Partly Cloudy
11:35 AM 23.0 °F 11.7 °F 19.4 °F 86% 29.55 in 10.0 mi North 11.5 mph - N/A   Clear
11:55 AM 23.0 °F 10.1 °F 19.4 °F 86% 29.55 in 10.0 mi North 15.0 mph - N/A   Clear
12:15 PM 23.0 °F 9.6 °F 19.4 °F 86% 29.57 in 10.0 mi NNW 16.1 mph - N/A   Mostly Cloudy
12:35 PM 23.0 °F 10.6 °F 19.4 °F 86% 29.58 in 10.0 mi NNW 13.8 mph - N/A   Overcast
12:55 PM 23.0 °F 11.7 °F 19.4 °F 86% 29.59 in 10.0 mi NW 11.5 mph - N/A   Overcast
1:15 PM 23.0 °F 12.4 °F 19.4 °F 86% 29.58 in 10.0 mi NNW 10.4 mph - N/A   Overcast
1:35 PM 23.0 °F 12.4 °F 19.4 °F 86% 29.58 in 10.0 mi North 10.4 mph - N/A   Overcast
1:55 PM 23.0 °F 10.6 °F 19.4 °F 86% 29.59 in 10.0 mi North 13.8 mph - N/A   Overcast
2:15 PM 23.0 °F 8.3 °F 19.4 °F 86% 29.60 in 10.0 mi North 19.6 mph - N/A   Overcast
2:35 PM 21.2 °F 4.5 °F 19.4 °F 93% 29.61 in 10.0 mi North 24.2 mph - N/A Rain Light Freezing Rain
2:55 PM 19.4 °F 1.4 °F 19.4 °F 100% 29.62 in 3.0 mi North 26.5 mph - N/A Snow Light Snow
3:15 PM 17.6 °F -1.0 °F 17.6 °F 100% 29.66 in 2.0 mi North 26.5 mph 29.9 mph N/A Snow Light Snow
3:35 PM 17.6 °F -0.6 °F 15.8 °F 93% 29.66 in 2.5 mi North 25.3 mph 34.5 mph 0.02 in Rain Light Freezing Rain
3:55 PM 15.8 °F -1.5 °F 14.0 °F 93% 29.68 in 10.0 mi North 20.7 mph - 0.02 in Rain Light Freezing Rain
4:15 PM 15.8 °F -2.3 °F 14.0 °F 93% 29.70 in 10.0 mi North 23.0 mph 29.9 mph N/A Rain Light Freezing Rain
4:35 PM 12.2 °F -6.7 °F 10.4 °F 92% 29.73 in 4.0 mi North 21.9 mph - N/A Rain Light Freezing Rain
4:55 PM 10.4 °F -9.1 °F 8.6 °F 92% 29.75 in 5.0 mi North 21.9 mph 25.3 mph 0.01 in Rain Light Freezing Rain
5:15 PM 8.6 °F -10.5 °F 5.0 °F 85% 29.77 in 7.0 mi North 19.6 mph - N/A Rain Light Freezing Rain
5:35 PM 6.8 °F -14.7 °F 5.0 °F 92% 29.79 in 3.0 mi North 24.2 mph - 0.01 in Rain Light Freezing Rain
5:55 PM 6.8 °F -14.7 °F 3.2 °F 85% 29.81 in 5.0 mi North 24.2 mph - 0.03 in Snow Light Snow
6:15 PM 6.8 °F -14.7 °F 3.2 °F 85% 29.82 in 3.0 mi North 24.2 mph - N/A Snow Light Snow
6:35 PM 6.8 °F -11.8 °F 3.2 °F 85% 29.84 in 10.0 mi North 17.3 mph - 0.01 in Rain Light Freezing Rain
6:55 PM 6.8 °F -10.7 °F 3.2 °F 85% 29.86 in 10.0 mi North 15.0 mph - 0.02 in Snow Light Snow
7:15 PM 5.0 °F -13.6 °F 1.4 °F 85% 29.87 in 8.0 mi North 16.1 mph - N/A Rain Light Freezing Rain
7:35 PM 3.2 °F -18.1 °F -0.4 °F 85% 29.87 in 3.0 mi NNE 20.7 mph - 0.01 in Rain Light Freezing Rain
7:55 PM 3.2 °F -15.9 °F -0.4 °F 85% 29.90 in 10.0 mi NNE 16.1 mph - 0.02 in Rain Light Freezing Rain
8:15 PM 1.4 °F -21.4 °F -2.2 °F 85% 29.91 in 10.0 mi North 23.0 mph - N/A   Overcast
8:35 PM -0.4 °F -22.3 °F -4.0 °F 85% 29.93 in 10.0 mi North 19.6 mph - N/A   Scattered Clouds
8:55 PM -0.4 °F -21.2 °F -4.0 °F 85% 29.93 in 10.0 mi North 17.3 mph - N/A   Clear
9:15 PM -0.4 °F -19.2 °F -4.0 °F 85% 29.95 in 10.0 mi North 13.8 mph - N/A   Clear
9:35 PM -0.4 °F -20.5 °F -4.0 °F 85% 29.96 in 10.0 mi North 16.1 mph - N/A   Clear
9:55 PM -0.4 °F -19.2 °F -5.8 °F 78% 29.97 in 10.0 mi North 13.8 mph - N/A   Scattered Clouds
10:15 PM -2.2 °F -22.9 °F -7.6 °F 78% 29.98 in 10.0 mi North 16.1 mph - N/A   Mostly Cloudy
10:35 PM -2.2 °F -24.7 °F -7.6 °F 78% 29.99 in 10.0 mi North 19.6 mph - N/A   Overcast
10:55 PM -2.2 °F -23.5 °F -7.6 °F 78% 30.00 in 10.0 mi North 17.3 mph - N/A   Scattered Clouds
11:15 PM -4.0 °F -27.0 °F -9.4 °F 78% 30.02 in 10.0 mi North 19.6 mph - N/A   Partly Cloudy
11:35 PM -4.0 °F -25.2 °F -9.4 °F 78% 30.04 in 10.0 mi North 16.1 mph - N/A   Scattered Clouds
11:55 PM -4.0 °F -25.8 °F -9.4 °F 78% 30.04 in 10.0 mi North 17.3 mph - N/A   Scattered Clouds